This is the latest recevied weather packets stored in our database for station/object IU1TLK-10. If no packets are shown the sender has not sent any weather packets the latest 10 day(s).
| Time | Temp. | Humidity | Pressure | Rain* | Wind** | Luminosity | Snow |
|---|---|---|---|---|---|---|---|
| 1778129321 | 11.11° C | 72% | 1014.6 hPa | - | - | - | - |
| 1778127521 | 11.11° C | 72% | 1014.3 hPa | - | - | - | - |
| 1778125721 | 11.11° C | 70% | 1014.3 hPa | - | - | - | - |
| 1778123920 | 11.11° C | 69% | 1014.1 hPa | - | - | - | - |
| 1778122123 | 11.11° C | 69% | 1014.1 hPa | - | - | - | - |
| 1778120323 | 11.67° C | 70% | 1014 hPa | - | - | - | - |
| 1778118522 | 11.11° C | 71% | 1013.9 hPa | - | - | - | - |
| 1778116722 | 11.11° C | 71% | 1013.5 hPa | - | - | - | - |
| 1778114922 | 11.67° C | 70% | 1013.5 hPa | - | - | - | - |
| 1778113122 | 12.22° C | 70% | 1013.6 hPa | - | - | - | - |
| 1778111321 | 12.22° C | 71% | 1013.6 hPa | - | - | - | - |
| 1778109521 | 12.22° C | 72% | 1013.3 hPa | - | - | - | - |
| 1778107721 | 12.22° C | 72% | 1013.1 hPa | - | - | - | - |
| 1778105921 | 12.22° C | 72% | 1012.8 hPa | - | - | - | - |
| 1778104121 | 12.78° C | 72% | 1012.6 hPa | - | - | - | - |
| 1778102320 | 12.78° C | 72% | 1012.4 hPa | - | - | - | - |
| 1778100523 | 13.33° C | 68% | 1012.2 hPa | - | - | - | - |
| 1778098723 | 13.89° C | 63% | 1011.7 hPa | - | - | - | - |
| 1778096923 | 13.89° C | 60% | 1010.8 hPa | - | - | - | - |
| 1778095123 | 13.89° C | 65% | 1010.2 hPa | - | - | - | - |
| 1778093322 | 14.44° C | 63% | 1009.9 hPa | - | - | - | - |
| 1778091522 | 15° C | 61% | 1009.2 hPa | - | - | - | - |
| 1778089722 | 15.56° C | 57% | 1008.6 hPa | - | - | - | - |
| 1778087922 | 16.11° C | 54% | 1008 hPa | - | - | - | - |
| 1778086122 | 16.67° C | 55% | 1007.8 hPa | - | - | - | - |
* Rain since midnight (hover to see other rain measurements)
** Current wind speed in m/s (hover to see current wind gust speed)